Flag for Finland Weather past 2 weeks in Helsinki, Finland

Now
43 °F

Fog.


Feels Like: 43 °F
Forecast: 50 / 65 °F
Wind: No wind

Location: Helsinki Malmi Airport

Current Time: Sep 2, 2014 at 4:02:59 AM

Latest Report: Sep 2, 2014 at 3:20 AM


Visibility: 0 mi

Pressure: 30.24 "Hg

Humidity: 100%

Dew point: 43 °F

Location of HelsinkiLocation

Historic Weather in Helsinki — Graph

°F

Helsinki temperature yesterday

Maximum temperature yesterday: 59 °F (at 4:20 PM)
Minimum temperature yesterday: 45 °F (at 4:20 AM)
Average temperature yesterday: 53 °F

Past Weeks' High & Low Weather Summary

 TemperatureHumidityPressure
High66 °F (Aug 18, 12:50 PM)100% (Aug 18, 2:20 AM)30.27 "Hg (Aug 18, 2:20 AM)
Low43 °F (Sep 2, 2:50 AM)48% (Aug 30, 3:20 PM)29.30 "Hg (Aug 26, 9:20 AM)
Average57 °F84%29.74 "Hg
* Reported Aug 18 2:20 AM — Sep 2 2:50 AM, Helsinki, Weather by CustomWeather, © 2014

Note: Actual official high and low records may vary slightly from our data, if they occured in-between our weather recording intervals... More about our weather records

Advertising

Helsinki weather history for previous 24 hours

 ConditionsComfort  
Time TempWeatherWind HumidityBarometerVisibility
2:50 AM
Sep 2
43 °FFog.No wind100%30.24 "Hg0 mi
2:20 AM45 °FFog.No wind100%30.24 "Hg4 mi
1:50 AM46 °FClear.No wind93%30.24 "Hg0 mi
1:20 AM48 °FFog.No wind94%30.24 "Hg0 mi
12:50 AM48 °FFog.No wind100%30.24 "Hg1 mi
12:20 AM50 °FPassing clouds.No wind94%30.24 "HgN/A
11:20 PM
Sep 1
50 °FPassing clouds.1 mph94%30.24 "HgN/A
10:50 PM52 °FPassing clouds.3 mph94%30.24 "HgN/A
10:20 PM54 °FMostly cloudy.No wind88%30.24 "HgN/A
9:50 PM54 °FPassing clouds.No wind88%30.24 "HgN/A
9:20 PM54 °FOvercast.1 mph88%30.24 "HgN/A
8:50 PM54 °FLight rain. Broken clouds.No wind88%30.24 "HgN/A
8:20 PM55 °FBroken clouds.1 mph82%30.24 "HgN/A
7:50 PM55 °FPartly sunny.No wind82%30.24 "HgN/A
7:20 PM55 °FBroken clouds.1 mph77%30.24 "HgN/A
6:50 PM57 °FBroken clouds.5 mph72%30.24 "HgN/A
6:20 PM57 °FPartly sunny.3 mph77%30.24 "HgN/A
5:50 PM57 °FPartly sunny.3 mph77%30.24 "HgN/A
5:20 PM57 °FPartly sunny.3 mph72%30.24 "HgN/A
4:50 PM59 °FPartly sunny.5 mph68%30.24 "HgN/A
4:20 PM59 °FPartly sunny.2 mph68%30.24 "HgN/A
3:50 PM57 °FPartly sunny.3 mph72%30.24 "HgN/A
3:20 PM57 °FPartly sunny.1 mph72%30.24 "HgN/A
2:50 PM57 °FPartly sunny.2 mph72%30.27 "HgN/A
2:20 PM57 °FBroken clouds.2 mph72%30.27 "HgN/A
1:50 PM57 °FPartly sunny.3 mph72%30.27 "HgN/A
1:20 PM57 °FPartly sunny.7 mph72%30.27 "HgN/A
12:50 PM57 °FBroken clouds.7 mph72%30.27 "HgN/A
12:20 PM57 °FPartly sunny.6 mph72%30.27 "HgN/A
11:50 AM57 °FPartly sunny.5 mph72%30.27 "HgN/A
11:20 AM55 °FPartly sunny.6 mph77%30.27 "HgN/A
10:50 AM55 °FBroken clouds.3 mph77%30.27 "HgN/A
10:20 AM55 °FBroken clouds.5 mph77%30.27 "HgN/A
9:50 AM54 °FBroken clouds.3 mph77%30.27 "HgN/A
9:20 AM54 °FPartly sunny.3 mph77%30.27 "HgN/A
8:50 AM50 °FPartly sunny.2 mph82%30.27 "HgN/A
8:20 AM50 °FPartly sunny.1 mph82%30.27 "HgN/A
7:50 AM48 °FOvercast.1 mph87%30.27 "HgN/A
7:20 AM48 °FPartly sunny.2 mph87%30.27 "HgN/A
6:50 AM48 °FPassing clouds.2 mph82%30.27 "HgN/A
6:20 AM46 °FPassing clouds.2 mph93%30.27 "HgN/A
5:50 AM45 °FPassing clouds.3 mph93%30.27 "HgN/A
5:20 AM45 °FPassing clouds.2 mph93%30.27 "HgN/A
4:50 AM45 °FClear.2 mph93%30.27 "Hg10 mi
4:20 AM45 °FClear.3 mph93%30.27 "Hg10 mi
Weather by CustomWeather, © 2014

See weather overviewHow to use our weather pages